This demonstration page uses our WeatherBlox Daily Observations layout. Learn more.

Left ArrowRight Arrow

40.97296, -117.73568

Hourly Observations for August 2, 2020

Temp ( °F °C ) Dew Point ( °F °C ) Humidity (%) Winds ( mph kmh ) Pressure ( in mb ) Visibility ( mi km ) Precip ( " mm )
12:56 am 00:56 Clear 59 15 10 -12.2 14 14 Calm 29.93 1014 10 16 0.00 0.00
1:56 am 01:56 Clear 57 13.9 14 -10 18 18 SSE 9 15 29.93 1014 10 16 0.00 0.00
2:56 am 02:56 Clear 53 11.7 12 -11.1 19 19 SSE 7 11 29.94 1014 10 16 0.00 0.00
3:56 am 03:56 Clear 51 10.6 13 -10.6 22 22 SSE 8 13 29.95 1014 10 16 0.00 0.00
4:56 am 04:56 Clear 50 10 16 -8.9 26 26 SSE 8 13 29.95 1014 10 16 0.00 0.00
5:56 am 05:56 Sunny 48 8.9 18 -7.8 30 30 SE 5 7 29.97 1015 10 16 0.00 0.00
6:56 am 06:56 Sunny 55 12.8 14 -10 20 20 S 7 11 29.97 1015 10 16 0.00 0.00
7:56 am 07:56 Sunny 70 21.1 12 -11.1 10 10 Calm 29.96 1015 10 16 0.00 0.00
8:56 am 08:56 Sunny 82 27.8 20 -6.7 10 10 W 8 13 29.96 1015 10 16 0.00 0.00
9:56 am 09:56 Sunny 86 30 18 -7.8 8 8 NW 6 9 29.95 1014 10 16 0.00 0.00
10:56 am 10:56 Sunny 91 32.8 20 -6.7 7 7 undefined N/A 29.93 1014 10 16 0.00 0.00
11:56 am 11:56 Sunny 94 34.4 19 -7.2 6 6 VRB 7 11 29.92 1013 10 16 0.00 0.00
12:56 pm 12:56 Sunny 97 36.1 16 -8.9 5 5 W 10 17 29.90 1013 10 16 0.00 0.00
1:56 pm 13:56 Sunny 99 37.2 17 -8.3 5 5 WNW 7 11 29.88 1012 10 16 0.00 0.00
2:56 pm 14:56 Sunny 99 37.2 16 -8.9 5 5 W 8 13 29.88 1012 10 16 0.00 0.00
3:56 pm 15:56 Mostly Sunny 101 38.3 19 -7.2 5 5 WNW 14 22 29.86 1011 10 16 0.00 0.00
4:56 pm 16:56 Mostly Sunny 98 36.7 21 -6.1 6 6 WNW 8 13 29.86 1011 10 16 0.00 0.00
5:56 pm 17:56 Sunny 97 36.1 18 -7.8 6 6 W 14 22 29.86 1011 10 16 0.00 0.00
6:56 pm 18:56 Mostly Sunny 94 34.4 17 -8.3 6 6 W 16 26 29.85 1011 10 16 0.00 0.00
7:56 pm 19:56 Sunny 87 30.6 9 -12.8 5 5 WNW 10 17 29.85 1011 10 16 0.00 0.00
8:56 pm 20:56 Clear 78 25.6 12 -11.1 8 8 VRB 3 6 29.86 1011 10 16 0.00 0.00
9:56 pm 21:56 Clear 82 27.8 9 -12.8 6 6 WSW 12 19 29.87 1012 10 16 0.00 0.00
10:56 pm 22:56 Clear 82 27.8 25 -3.9 12 12 W 10 17 29.87 1012 10 16 0.00 0.00
11:56 pm 23:56 Clear 75 23.9 26 -3.3 16 16 W 9 15 29.88 1012 10 16 0.00 0.00

Powered by AerisWeather